Date,TemperatureHighF,TemperatureAvgF,TemperatureLowF,DewpointHighF,DewpointAvgF,DewpointLowF,HumidityHigh,HumidityAvg,HumidityLow,PressureMaxIn,PressureMinIn,WindSpeedMaxMPH,WindSpeedAvgMPH,GustSpeedMaxMPH,PrecipitationSumIn
2013-1-2,24,20,16,12,10,9,79,66,56,0.00,40.00,11,4,16,0.00
2013-1-3,31,21,11,19,13,7,87,69,47,0.00,40.00,17,6,25,0.00
2013-1-4,30,27,25,20,18,15,75,67,56,0.00,40.00,17,11,29,0.00
2013-1-5,37,29,22,23,19,15,82,68,53,0.00,40.00,10,5,19,2.24
2013-1-6,36,33,30,30,26,23,89,74,63,0.00,40.00,14,6,22,4.48
2013-1-7,33,29,23,25,23,20,87,78,64,0.00,40.00,9,4,14,0.00
2013-1-8,42,32,22,27,23,19,88,72,50,0.00,40.00,7,3,15,0.00
2013-1-9,46,40,33,37,29,23,84,66,54,0.00,40.00,14,7,25,2.24
2013-1-10,38,35,29,27,26,25,87,71,59,0.00,40.00,11,5,15,0.00
2013-1-11,55,47,38,51,40,25,93,77,53,0.00,40.00,10,6,17,1.10
2013-1-12,60,56,50,54,52,48,94,87,75,0.00,40.00,10,4,16,0.00
2013-1-13,65,61,49,55,53,42,90,76,64,0.00,40.00,21,6,29,1.65
2013-1-14,46,33,27,44,26,20,91,76,65,0.00,40.00,21,6,32,1.69
2013-1-15,31,27,23,21,20,19,86,73,61,0.00,40.00,7,4,16,0.00
2013-1-16,32,30,28,29,26,20,93,86,68,0.00,40.00,12,5,19,1.10
2013-1-17,34,32,28,27,25,18,83,76,64,0.00,40.00,17,5,25,0.00
2013-1-18,32,25,17,19,13,8,81,60,46,0.00,40.00,18,7,25,0.55
2013-1-19,51,42,32,23,19,16,57,41,25,0.00,40.00,17,10,32,0.00
2013-1-20,44,32,22,30,16,10,66,53,41,0.00,40.00,24,11,41,0.00
2013-1-21,22,18,9,17,11,-1,86,74,50,0.00,40.00,22,6,30,13.41
2013-1-22,11,7,3,2,-2,-5,78,67,52,0.00,40.00,16,6,26,1.10
2013-1-23,15,9,1,9,1,-4,87,69,48,0.00,40.00,7,2,16,0.55
2013-1-24,21,14,9,12,5,-3,89,69,34,0.00,40.00,9,3,17,1.10
2013-1-25,17,13,9,14,8,1,87,77,64,0.00,40.00,9,3,14,11.17
2013-1-26,26,21,16,20,16,12,90,79,58,0.00,40.00,13,5,22,4.44
2013-1-27,31,22,10,17,14,7,90,72,48,0.00,40.00,10,3,12,0.00
2013-1-28,48,40,29,47,37,17,94,90,61,0.00,40.00,12,7,22,6.05
2013-1-29,63,55,48,53,49,47,94,82,63,0.00,40.00,11,6,20,2.20
2013-1-30,64,56,37,55,49,33,90,78,64,0.00,40.00,26,8,38,16.29
2013-1-31,36,23,20,33,16,9,89,73,55,0.00,40.00,24,13,38,7.33